Time,TemperatureF,DewpointF,PressureIn,WindDirection,WindDirectionDegrees,WindSpeedMPH,WindSpeedGustMPH,Humidity,HourlyPrecipIn,Conditions,Clouds,dailyrainin,SolarRadiationWatts/m^2,SoftwareType,DateUTC
2015-01-30 00:00:00,39.9,35.2,30.30,ESE,102,1.0,3.0,83,0.07,,,0.07,0,Wunderground v.1.15,2015-01-30 05:00:00,
2015-01-30 00:06:00,39.8,35.1,30.30,WSW,237,1.0,3.0,83,0.04,,,0.00,0,Wunderground v.1.15,2015-01-30 05:06:00,
2015-01-30 00:11:00,39.6,34.9,30.30,WNW,301,1.0,3.0,83,0.00,,,0.00,0,Wunderground v.1.15,2015-01-30 05:11:00,
2015-01-30 00:16:00,39.5,34.8,30.30,WSW,248,2.0,3.0,83,0.00,,,0.00,0,Wunderground v.1.15,2015-01-30 05:16:00,
2015-01-30 00:22:00,39.5,34.8,30.30,West,272,1.0,7.0,83,0.00,,,0.00,0,Wunderground v.1.15,2015-01-30 05:22:00,
2015-01-30 00:28:00,39.3,34.6,30.31,WNW,286,3.0,7.0,83,0.00,,,0.00,0,Wunderground v.1.15,2015-01-30 05:28:00,
2015-01-30 00:33:00,39.2,33.9,30.31,WSW,255,5.0,13.0,81,0.00,,,0.00,0,Wunderground v.1.15,2015-01-30 05:33:00,
2015-01-30 00:39:00,39.2,33.9,30.31,West,275,5.0,13.0,81,0.00,,,0.00,0,Wunderground v.1.15,2015-01-30 05:39:00,
2015-01-30 00:44:00,39.2,33.5,30.31,West,274,4.0,13.0,80,0.00,,,0.00,0,Wunderground v.1.15,2015-01-30 05:44:00,
2015-01-30 00:50:00,39.1,33.1,30.31,West,278,4.0,13.0,79,0.00,,,0.00,0,Wunderground v.1.15,2015-01-30 05:50:00,
2015-01-30 00:56:00,39.1,32.8,30.31,West,276,3.0,13.0,78,0.00,,,0.00,0,Wunderground v.1.15,2015-01-30 05:56:00,
2015-01-30 01:02:00,39.1,32.8,30.31,WNW,286,3.0,4.0,78,0.00,,,0.00,0,Wunderground v.1.15,2015-01-30 06:02:00,
2015-01-30 01:07:00,39.1,32.8,30.31,SW,229,3.0,4.0,78,0.00,,,0.00,0,Wunderground v.1.15,2015-01-30 06:07:00,
2015-01-30 01:13:00,39.1,32.5,30.31,WSW,255,2.0,4.0,77,0.00,,,0.00,0,Wunderground v.1.15,2015-01-30 06:13:00,
2015-01-30 01:19:00,39.1,32.8,30.31,NW,313,2.0,4.0,78,0.00,,,0.00,0,Wunderground v.1.15,2015-01-30 06:19:00,
2015-01-30 01:25:00,39.1,32.5,30.31,WSW,250,2.0,7.0,77,0.00,,,0.00,0,Wunderground v.1.15,2015-01-30 06:25:00,
2015-01-30 01:30:00,38.9,32.3,30.31,WSW,242,4.0,4.0,77,0.00,,,0.00,0,Wunderground v.1.15,2015-01-30 06:30:00,
2015-01-30 01:35:00,38.9,32.6,30.31,WNW,288,2.0,12.0,78,0.00,,,0.00,0,Wunderground v.1.15,2015-01-30 06:35:00,
2015-01-30 01:41:00,38.9,32.3,30.31,West,269,1.0,12.0,77,0.00,,,0.00,0,Wunderground v.1.15,2015-01-30 06:41:00,
2015-01-30 01:46:00,38.9,32.3,30.31,WSW,246,1.0,12.0,77,0.00,,,0.00,0,Wunderground v.1.15,2015-01-30 06:46:00,
2015-01-30 01:52:00,38.9,32.3,30.31,SW,226,2.0,12.0,77,0.00,,,0.00,0,Wunderground v.1.15,2015-01-30 06:52:00,
2015-01-30 01:57:00,38.9,32.0,30.31,SW,232,3.0,12.0,76,0.00,,,0.00,0,Wunderground v.1.15,2015-01-30 06:57:00,
2015-01-30 02:02:00,38.9,32.0,30.31,West,274,3.0,3.0,76,0.00,,,0.00,0,Wunderground v.1.15,2015-01-30 07:02:00,
2015-01-30 02:08:00,38.9,32.3,30.31,West,270,3.0,6.0,77,0.00,,,0.00,0,Wunderground v.1.15,2015-01-30 07:08:00,
2015-01-30 02:14:00,38.8,31.9,30.32,West,278,4.0,10.0,76,0.00,,,0.00,0,Wunderground v.1.15,2015-01-30 07:14:00,
2015-01-30 02:19:00,38.8,31.6,30.32,West,278,4.0,11.0,75,0.00,,,0.00,0,Wunderground v.1.15,2015-01-30 07:19:00,
2015-01-30 02:25:00,38.6,31.0,30.32,West,280,4.0,7.0,74,0.00,,,0.00,0,Wunderground v.1.15,2015-01-30 07:25:00,
2015-01-30 02:31:00,38.5,30.9,30.32,WSW,257,3.0,9.0,74,0.00,,,0.00,0,Wunderground v.1.15,2015-01-30 07:31:00,
2015-01-30 02:36:00,38.5,30.9,30.32,West,266,3.0,9.0,74,0.00,,,0.00,0,Wunderground v.1.15,2015-01-30 07:36:00,
2015-01-30 02:42:00,38.3,30.7,30.32,WNW,287,3.0,9.0,74,0.00,,,0.00,0,Wunderground v.1.15,2015-01-30 07:42:00,
2015-01-30 02:47:00,38.3,30.7,30.33,West,281,3.0,9.0,74,0.00,,,0.00,0,Wunderground v.1.15,2015-01-30 07:47:00,
2015-01-30 02:53:00,38.2,30.3,30.33,West,280,2.0,9.0,73,0.00,,,0.00,0,Wunderground v.1.15,2015-01-30 07:53:00,
2015-01-30 02:59:00,38.2,30.3,30.33,WNW,282,2.0,9.0,73,0.00,,,0.00,0,Wunderground v.1.15,2015-01-30 07:59:00,
2015-01-30 03:04:00,38.0,30.1,30.33,West,262,4.0,10.0,73,0.00,,,0.00,0,Wunderground v.1.15,2015-01-30 08:04:00,
2015-01-30 03:09:00,37.9,30.0,30.33,West,265,4.0,10.0,73,0.00,,,0.00,0,Wunderground v.1.15,2015-01-30 08:09:00,
2015-01-30 03:15:00,37.9,30.0,30.33,West,268,2.0,4.0,73,0.00,,,0.00,0,Wunderground v.1.15,2015-01-30 08:15:00,
2015-01-30 03:20:00,37.8,29.9,30.33,West,276,1.0,1.0,73,0.00,,,0.00,0,Wunderground v.1.15,2015-01-30 08:20:00,
2015-01-30 03:26:00,37.6,29.7,30.33,West,264,2.0,4.0,73,0.00,,,0.00,0,Wunderground v.1.15,2015-01-30 08:26:00,
2015-01-30 03:31:00,37.6,29.7,30.33,WNW,284,3.0,15.0,73,0.00,,,0.00,0,Wunderground v.1.15,2015-01-30 08:31:00,
2015-01-30 03:37:00,37.5,29.3,30.33,WNW,299,1.0,15.0,72,0.00,,,0.00,0,Wunderground v.1.15,2015-01-30 08:37:00,
2015-01-30 03:42:00,37.5,29.3,30.34,WSW,255,0.0,15.0,72,0.00,,,0.00,0,Wunderground v.1.15,2015-01-30 08:42:00,
2015-01-30 03:47:00,37.3,29.1,30.34,West,262,0.0,15.0,72,0.00,,,0.00,0,Wunderground v.1.15,2015-01-30 08:47:00,
2015-01-30 03:52:00,37.3,29.1,30.34,West,273,1.0,15.0,72,0.00,,,0.00,0,Wunderground v.1.15,2015-01-30 08:52:00,
2015-01-30 03:58:00,37.2,28.7,30.34,West,263,2.0,15.0,71,0.00,,,0.00,0,Wunderground v.1.15,2015-01-30 08:58:00,
2015-01-30 04:03:00,37.2,28.0,30.34,WSW,248,2.0,6.0,69,0.00,,,0.00,0,Wunderground v.1.15,2015-01-30 09:03:00,
2015-01-30 04:09:00,37.0,27.1,30.34,NE,43,3.0,10.0,67,0.00,,,0.00,0,Wunderground v.1.15,2015-01-30 09:09:00,
2015-01-30 04:15:00,36.9,26.6,30.34,West,259,3.0,8.0,66,0.00,,,0.00,0,Wunderground v.1.15,2015-01-30 09:15:00,
2015-01-30 04:21:00,36.9,26.2,30.35,South,184,4.0,4.0,65,0.00,,,0.00,0,Wunderground v.1.15,2015-01-30 09:21:00,
2015-01-30 04:27:00,36.8,25.8,30.35,SW,226,3.0,6.0,64,0.00,,,0.00,0,Wunderground v.1.15,2015-01-30 09:27:00,
2015-01-30 04:32:00,36.8,25.8,30.35,West,279,3.0,10.0,64,0.00,,,0.00,0,Wunderground v.1.15,2015-01-30 09:32:00,
2015-01-30 04:37:00,36.6,25.6,30.35,WSW,255,3.0,10.0,64,0.00,,,0.00,0,Wunderground v.1.15,2015-01-30 09:37:00,
2015-01-30 04:43:00,36.6,25.6,30.36,West,271,3.0,10.0,64,0.00,,,0.00,0,Wunderground v.1.15,2015-01-30 09:43:00,
2015-01-30 04:49:00,36.6,25.9,30.36,West,280,4.0,10.0,65,0.00,,,0.00,0,Wunderground v.1.15,2015-01-30 09:49:00,
2015-01-30 04:55:00,36.5,25.8,30.37,WNW,283,4.0,10.0,65,0.00,,,0.00,0,Wunderground v.1.15,2015-01-30 09:55:00,
2015-01-30 05:00:00,36.5,26.2,30.36,West,281,2.0,2.0,66,0.00,,,0.00,0,Wunderground v.1.15,2015-01-30 10:00:00,
2015-01-30 05:06:00,36.3,25.7,30.37,ESE,107,2.0,4.0,65,0.00,,,0.00,0,Wunderground v.1.15,2015-01-30 10:06:00,
2015-01-30 05:12:00,36.3,25.7,30.37,WSW,256,3.0,3.0,65,0.00,,,0.00,0,Wunderground v.1.15,2015-01-30 10:12:00,
2015-01-30 05:18:00,36.2,25.6,30.38,West,277,1.0,3.0,65,0.00,,,0.00,0,Wunderground v.1.15,2015-01-30 10:18:00,
2015-01-30 05:24:00,36.2,25.6,30.38,West,272,1.0,1.0,65,0.00,,,0.00,0,Wunderground v.1.15,2015-01-30 10:24:00,
2015-01-30 05:29:00,36.2,25.9,30.38,West,267,0.0,1.0,66,0.00,,,0.00,0,Wunderground v.1.15,2015-01-30 10:29:00,
2015-01-30 05:34:00,36.2,25.9,30.38,WNW,290,0.0,13.0,66,0.00,,,0.00,0,Wunderground v.1.15,2015-01-30 10:34:00,
2015-01-30 05:40:00,36.0,25.7,30.38,NE,50,0.0,13.0,66,0.00,,,0.00,0,Wunderground v.1.15,2015-01-30 10:40:00,
2015-01-30 05:46:00,36.0,25.7,30.38,NE,50,0.0,13.0,66,0.00,,,0.00,0,Wunderground v.1.15,2015-01-30 10:46:00,
2015-01-30 05:52:00,35.9,25.6,30.38,NE,50,0.0,13.0,66,0.00,,,0.00,0,Wunderground v.1.15,2015-01-30 10:52:00,
2015-01-30 05:58:00,35.9,26.0,30.38,NE,50,0.0,13.0,67,0.00,,,0.00,0,Wunderground v.1.15,2015-01-30 10:58:00,
2015-01-30 06:03:00,35.9,26.0,30.39,NNW,343,0.0,0.0,67,0.00,,,0.00,0,Wunderground v.1.15,2015-01-30 11:03:00,
2015-01-30 06:09:00,35.9,26.4,30.39,West,280,0.0,2.0,68,0.00,,,0.00,0,Wunderground v.1.15,2015-01-30 11:09:00,
2015-01-30 06:14:00,35.9,26.4,30.39,SW,231,0.0,0.0,68,0.00,,,0.00,0,Wunderground v.1.15,2015-01-30 11:14:00,
2015-01-30 06:20:00,35.9,26.4,30.39,SW,235,0.0,0.0,68,0.00,,,0.00,0,Wunderground v.1.15,2015-01-30 11:20:00,
2015-01-30 06:26:00,35.9,26.7,30.40,SW,236,0.0,2.0,69,0.00,,,0.00,0,Wunderground v.1.15,2015-01-30 11:26:00,
2015-01-30 06:31:00,35.9,26.7,30.40,WNW,295,1.0,2.0,69,0.00,,,0.00,0,Wunderground v.1.15,2015-01-30 11:31:00,
2015-01-30 06:37:00,35.8,26.6,30.40,WNW,293,1.0,14.0,69,0.00,,,0.00,0,Wunderground v.1.15,2015-01-30 11:37:00,
2015-01-30 06:43:00,35.8,26.6,30.40,WNW,293,0.0,14.0,69,0.00,,,0.00,0,Wunderground v.1.15,2015-01-30 11:43:00,
2015-01-30 06:48:00,35.8,26.6,30.40,WNW,293,0.0,14.0,69,0.00,,,0.00,0,Wunderground v.1.15,2015-01-30 11:48:00,
2015-01-30 06:54:00,35.8,26.6,30.40,WNW,293,0.0,14.0,69,0.00,,,0.00,0,Wunderground v.1.15,2015-01-30 11:54:00,
2015-01-30 07:00:00,35.8,26.6,30.40,WNW,293,0.0,0.0,69,0.00,,,0.00,0,Wunderground v.1.15,2015-01-30 12:00:00,
2015-01-30 07:06:00,35.6,26.4,30.40,WNW,293,0.0,0.0,69,0.00,,,0.00,0,Wunderground v.1.15,2015-01-30 12:06:00,
2015-01-30 07:11:00,35.6,26.4,30.41,WNW,283,0.0,0.0,69,0.00,,,0.00,0,Wunderground v.1.15,2015-01-30 12:11:00,
2015-01-30 07:16:00,35.6,26.4,30.41,SSE,162,0.0,0.0,69,0.00,,,0.00,0,Wunderground v.1.15,2015-01-30 12:16:00,
2015-01-30 07:22:00,35.6,26.4,30.41,South,191,0.0,0.0,69,0.00,,,0.00,0,Wunderground v.1.15,2015-01-30 12:22:00,
2015-01-30 07:27:00,35.5,26.0,30.41,NE,44,0.0,3.0,68,0.00,,,0.00,0,Wunderground v.1.15,2015-01-30 12:27:00,
2015-01-30 07:32:00,35.5,25.6,30.42,NNE,29,0.0,5.0,67,0.00,,,0.00,0,Wunderground v.1.15,2015-01-30 12:32:00,
2015-01-30 07:38:00,35.5,25.6,30.42,West,268,0.0,5.0,67,0.00,,,0.00,0,Wunderground v.1.15,2015-01-30 12:38:00,
2015-01-30 07:44:00,35.5,25.3,30.42,SSW,202,1.0,5.0,66,0.00,,,0.00,0,Wunderground v.1.15,2015-01-30 12:44:00,
2015-01-30 07:50:00,35.5,25.3,30.42,West,268,2.0,5.0,66,0.00,,,0.00,0,Wunderground v.1.15,2015-01-30 12:50:00,
2015-01-30 07:55:00,35.5,24.9,30.42,SW,218,2.0,5.0,65,0.00,,,0.00,0,Wunderground v.1.15,2015-01-30 12:55:00,
2015-01-30 08:00:00,35.6,25.0,30.43,WSW,256,2.0,2.0,65,0.00,,,0.00,5,Wunderground v.1.15,2015-01-30 13:00:00,
2015-01-30 08:06:00,35.5,24.5,30.43,SW,230,2.0,5.0,64,0.00,,,0.00,9,Wunderground v.1.15,2015-01-30 13:06:00,
2015-01-30 08:12:00,35.5,24.5,30.43,SW,231,1.0,2.0,64,0.00,,,0.00,16,Wunderground v.1.15,2015-01-30 13:12:00,
2015-01-30 08:18:00,35.5,24.1,30.43,ENE,70,1.0,6.0,63,0.00,,,0.00,16,Wunderground v.1.15,2015-01-30 13:18:00,
2015-01-30 08:24:00,35.5,23.8,30.43,West,276,1.0,2.0,62,0.00,,,0.00,18,Wunderground v.1.15,2015-01-30 13:24:00,
2015-01-30 08:29:00,35.5,23.4,30.43,West,273,1.0,2.0,61,0.00,,,0.00,18,Wunderground v.1.15,2015-01-30 13:29:00,
2015-01-30 08:35:00,35.5,23.4,30.43,WSW,255,1.0,4.0,61,0.00,,,0.00,21,Wunderground v.1.15,2015-01-30 13:35:00,
2015-01-30 08:41:00,35.5,23.8,30.44,WSW,255,0.0,4.0,62,0.00,,,0.00,25,Wunderground v.1.15,2015-01-30 13:41:00,
2015-01-30 08:47:00,35.5,23.8,30.44,West,274,1.0,4.0,62,0.00,,,0.00,44,Wunderground v.1.15,2015-01-30 13:47:00,
2015-01-30 08:52:00,35.5,23.8,30.43,West,266,1.0,4.0,62,0.00,,,0.00,40,Wunderground v.1.15,2015-01-30 13:52:00,
2015-01-30 08:58:00,35.6,23.5,30.44,West,276,1.0,4.0,61,0.00,,,0.00,35,Wunderground v.1.15,2015-01-30 13:58:00,
2015-01-30 09:03:00,35.6,23.9,30.44,SW,233,1.0,2.0,62,0.00,,,0.00,56,Wunderground v.1.15,2015-01-30 14:03:00,
2015-01-30 09:10:00,35.8,24.0,30.45,WSW,242,1.0,4.0,62,0.00,,,0.00,53,Wunderground v.1.15,2015-01-30 14:10:00,
2015-01-30 09:16:00,35.8,24.4,30.45,WSW,249,3.0,6.0,63,0.00,,,0.00,44,Wunderground v.1.15,2015-01-30 14:16:00,
2015-01-30 09:21:00,35.8,24.8,30.45,WNW,289,2.0,2.0,64,0.00,,,0.00,40,Wunderground v.1.15,2015-01-30 14:21:00,
2015-01-30 09:27:00,35.8,25.2,30.45,West,276,1.0,3.0,65,0.00,,,0.00,35,Wunderground v.1.15,2015-01-30 14:27:00,
2015-01-30 09:32:00,35.8,25.5,30.46,WSW,255,2.0,9.0,66,0.00,,,0.00,51,Wunderground v.1.15,2015-01-30 14:32:00,
2015-01-30 09:38:00,35.6,25.7,30.46,West,281,3.0,9.0,67,0.00,,,0.00,84,Wunderground v.1.15,2015-01-30 14:38:00,
2015-01-30 09:43:00,35.6,25.7,30.46,WNW,291,1.0,9.0,67,0.00,,,0.00,63,Wunderground v.1.15,2015-01-30 14:43:00,
2015-01-30 09:49:00,35.6,25.7,30.46,WNW,297,2.0,9.0,67,0.00,,,0.00,121,Wunderground v.1.15,2015-01-30 14:49:00,
2015-01-30 09:55:00,35.8,26.6,30.46,West,261,3.0,9.0,69,0.00,,,0.00,171,Wunderground v.1.15,2015-01-30 14:55:00,
2015-01-30 10:00:00,36.0,26.5,30.47,West,264,3.0,3.0,68,0.00,,,0.00,209,Wunderground v.1.15,2015-01-30 15:00:00,
2015-01-30 10:06:00,36.2,26.6,30.48,West,281,2.0,4.0,68,0.00,,,0.00,190,Wunderground v.1.15,2015-01-30 15:06:00,
2015-01-30 10:11:00,36.5,25.8,30.48,SW,226,2.0,3.0,65,0.00,,,0.00,244,Wunderground v.1.15,2015-01-30 15:11:00,
2015-01-30 10:16:00,37.2,25.4,30.48,WSW,237,2.0,6.0,62,0.00,,,0.00,236,Wunderground v.1.15,2015-01-30 15:16:00,
2015-01-30 10:22:00,37.2,24.6,30.48,North,360,2.0,6.0,60,0.00,,,0.00,188,Wunderground v.1.15,2015-01-30 15:22:00,
2015-01-30 10:28:00,37.2,23.8,30.48,ESE,110,2.0,6.0,58,0.00,,,0.00,221,Wunderground v.1.15,2015-01-30 15:28:00,
2015-01-30 10:33:00,37.2,22.9,30.48,West,278,3.0,10.0,56,0.00,,,0.00,214,Wunderground v.1.15,2015-01-30 15:33:00,
2015-01-30 10:39:00,37.6,23.3,30.48,WSW,253,2.0,10.0,56,0.00,,,0.00,213,Wunderground v.1.15,2015-01-30 15:39:00,
2015-01-30 10:45:00,37.9,24.0,30.48,WSW,249,2.0,10.0,57,0.00,,,0.00,243,Wunderground v.1.15,2015-01-30 15:45:00,
2015-01-30 10:51:00,37.9,25.6,30.48,West,266,3.0,10.0,61,0.00,,,0.00,211,Wunderground v.1.15,2015-01-30 15:51:00,
2015-01-30 10:56:00,37.8,25.1,30.48,WSW,251,4.0,10.0,60,0.00,,,0.00,158,Wunderground v.1.15,2015-01-30 15:56:00,
2015-01-30 11:01:00,37.5,24.9,30.48,WSW,239,5.0,10.0,60,0.00,,,0.00,207,Wunderground v.1.15,2015-01-30 16:01:00,
2015-01-30 11:06:00,37.3,24.7,30.49,WSW,251,6.0,10.0,60,0.00,,,0.00,174,Wunderground v.1.15,2015-01-30 16:06:00,
2015-01-30 11:12:00,37.3,25.1,30.49,WSW,249,4.0,5.0,61,0.00,,,0.00,190,Wunderground v.1.15,2015-01-30 16:12:00,
2015-01-30 11:21:00,36.9,24.3,30.49,WSW,253,5.0,5.0,60,0.00,,,0.00,197,Wunderground v.1.15,2015-01-30 16:21:00,
2015-01-30 11:27:00,37.0,24.0,30.50,WSW,247,6.0,11.0,59,0.00,,,0.00,209,Wunderground v.1.15,2015-01-30 16:27:00,
2015-01-30 11:33:00,36.9,23.1,30.50,ENE,58,5.0,7.0,57,0.00,,,0.00,171,Wunderground v.1.15,2015-01-30 16:33:00,
2015-01-30 11:38:00,36.8,23.0,30.50,SW,218,3.0,7.0,57,0.00,,,0.00,162,Wunderground v.1.15,2015-01-30 16:38:00,
2015-01-30 11:44:00,36.9,22.7,30.50,West,280,2.0,7.0,56,0.00,,,0.00,269,Wunderground v.1.15,2015-01-30 16:44:00,
2015-01-30 11:50:00,37.8,22.6,30.49,West,265,2.0,7.0,54,0.00,,,0.00,364,Wunderground v.1.15,2015-01-30 16:50:00,
2015-01-30 11:55:00,37.6,21.1,30.49,WNW,286,2.0,7.0,51,0.00,,,0.00,244,Wunderground v.1.15,2015-01-30 16:55:00,
2015-01-30 12:00:00,37.9,21.4,30.49,NW,305,2.0,4.0,51,0.00,,,0.00,323,Wunderground v.1.15,2015-01-30 17:00:00,
2015-01-30 12:06:00,39.2,22.1,30.49,West,265,2.0,4.0,50,0.00,,,0.00,879,Wunderground v.1.15,2015-01-30 17:06:00,
2015-01-30 12:12:00,39.1,21.0,30.49,WSW,252,3.0,4.0,48,0.00,,,0.00,346,Wunderground v.1.15,2015-01-30 17:12:00,
2015-01-30 12:17:00,38.8,20.8,30.49,South,175,3.0,4.0,48,0.00,,,0.00,346,Wunderground v.1.15,2015-01-30 17:17:00,
2015-01-30 12:23:00,38.9,22.3,30.49,East,85,2.0,4.0,51,0.00,,,0.00,364,Wunderground v.1.15,2015-01-30 17:23:00,
2015-01-30 12:28:00,40.9,25.1,30.48,WSW,247,3.0,6.0,53,0.00,,,0.00,705,Wunderground v.1.15,2015-01-30 17:28:00,
2015-01-30 12:34:00,40.6,22.9,30.48,WNW,286,4.0,16.0,49,0.00,,,0.00,294,Wunderground v.1.15,2015-01-30 17:34:00,
2015-01-30 12:47:00,40.5,20.8,30.48,WNW,286,3.0,16.0,45,0.00,,,0.00,253,Wunderground v.1.15,2015-01-30 17:47:00,
2015-01-30 12:53:00,39.1,21.0,30.48,West,272,3.0,16.0,48,0.00,,,0.00,323,Wunderground v.1.15,2015-01-30 17:53:00,
2015-01-30 12:59:00,39.5,20.9,30.48,NNE,24,3.0,16.0,47,0.00,,,0.00,220,Wunderground v.1.15,2015-01-30 17:59:00,
2015-01-30 13:04:00,39.2,20.1,30.48,West,270,3.0,6.0,46,0.00,,,0.00,316,Wunderground v.1.15,2015-01-30 18:04:00,
2015-01-30 13:10:00,39.8,20.2,30.48,West,262,3.0,6.0,45,0.00,,,0.00,251,Wunderground v.1.15,2015-01-30 18:10:00,
2015-01-30 13:15:00,39.3,20.7,30.48,North,10,3.0,10.0,47,0.00,,,0.00,244,Wunderground v.1.15,2015-01-30 18:15:00,
2015-01-30 13:20:00,39.2,19.1,30.48,ESE,110,3.0,3.0,44,0.00,,,0.00,294,Wunderground v.1.15,2015-01-30 18:20:00,
2015-01-30 13:26:00,39.5,19.9,30.48,NE,37,3.0,5.0,45,0.00,,,0.00,244,Wunderground v.1.15,2015-01-30 18:26:00,
2015-01-30 13:32:00,39.2,20.1,30.48,North,10,2.0,11.0,46,0.00,,,0.00,223,Wunderground v.1.15,2015-01-30 18:32:00,
2015-01-30 13:37:00,39.2,20.1,30.48,West,280,2.0,11.0,46,0.00,,,0.00,200,Wunderground v.1.15,2015-01-30 18:37:00,
2015-01-30 13:43:00,38.8,19.2,30.48,WNW,300,3.0,11.0,45,0.00,,,0.00,153,Wunderground v.1.15,2015-01-30 18:43:00,
2015-01-30 13:49:00,41.5,20.1,30.47,WSW,252,3.0,11.0,42,0.00,,,0.00,798,Wunderground v.1.15,2015-01-30 18:49:00,
2015-01-30 13:54:00,42.2,20.7,30.47,WSW,256,3.0,11.0,42,0.00,,,0.00,788,Wunderground v.1.15,2015-01-30 18:54:00,
2015-01-30 14:02:00,41.2,19.2,30.47,South,185,3.0,3.0,41,0.00,,,0.00,202,Wunderground v.1.15,2015-01-30 19:02:00,
2015-01-30 14:08:00,40.1,17.7,30.47,West,270,2.0,4.0,40,0.00,,,0.00,269,Wunderground v.1.15,2015-01-30 19:08:00,
2015-01-30 14:14:00,40.1,19.4,30.47,NNE,29,3.0,4.0,43,0.00,,,0.00,127,Wunderground v.1.15,2015-01-30 19:14:00,
2015-01-30 14:20:00,39.8,18.5,30.46,NNE,33,2.0,5.0,42,0.00,,,0.00,162,Wunderground v.1.15,2015-01-30 19:20:00,
2015-01-30 14:25:00,41.3,19.3,30.46,SSW,212,2.0,4.0,41,0.00,,,0.00,689,Wunderground v.1.15,2015-01-30 19:25:00,
2015-01-30 14:30:00,42.8,19.5,30.46,NW,307,2.0,5.0,39,0.00,,,0.00,691,Wunderground v.1.15,2015-01-30 19:30:00,
2015-01-30 14:36:00,41.5,17.7,30.46,West,266,3.0,10.0,38,0.00,,,0.00,640,Wunderground v.1.15,2015-01-30 19:36:00,
2015-01-30 14:42:00,42.1,19.5,30.45,WSW,249,3.0,10.0,40,0.00,,,0.00,596,Wunderground v.1.15,2015-01-30 19:42:00,
2015-01-30 14:47:00,42.8,20.1,30.45,WNW,287,2.0,10.0,40,0.00,,,0.00,615,Wunderground v.1.15,2015-01-30 19:47:00,
2015-01-30 14:53:00,42.6,19.9,30.45,SW,236,3.0,10.0,40,0.00,,,0.00,554,Wunderground v.1.15,2015-01-30 19:53:00,
2015-01-30 15:02:00,42.8,20.1,30.45,SW,226,3.0,3.0,40,0.00,,,0.00,552,Wunderground v.1.15,2015-01-30 20:02:00,
2015-01-30 15:09:00,42.6,18.7,30.45,WSW,251,5.0,7.0,38,0.00,,,0.00,520,Wunderground v.1.15,2015-01-30 20:09:00,
2015-01-30 15:15:00,42.8,18.3,30.45,WNW,293,3.0,5.0,37,0.00,,,0.00,566,Wunderground v.1.15,2015-01-30 20:15:00,
2015-01-30 15:21:00,43.2,19.9,30.45,West,272,2.0,2.0,39,0.00,,,0.00,552,Wunderground v.1.15,2015-01-30 20:21:00,
2015-01-30 15:26:00,43.1,20.4,30.45,West,281,1.0,3.0,40,0.00,,,0.00,531,Wunderground v.1.15,2015-01-30 20:26:00,
2015-01-30 15:31:00,43.2,18.0,30.45,NE,39,1.0,1.0,36,0.00,,,0.00,485,Wunderground v.1.15,2015-01-30 20:31:00,
2015-01-30 15:38:00,43.5,18.9,30.45,WNW,285,1.0,11.0,37,0.00,,,0.00,445,Wunderground v.1.15,2015-01-30 20:38:00,